This demonstration page uses our WeatherBlox Daily Observations layout. Learn more.

Left ArrowRight Arrow

Hourly Observations for July 17, 2021

Temp ( °F °C ) Dew Point ( °F °C ) Humidity (%) Winds ( mph kmh ) Pressure ( in mb ) Visibility ( mi km ) Precip ( " mm )
12:56 am 00:56 Clear 70 21.1 68 20 93 93 SE 9 15 29.97 1015 9 14 0.00 0.00
1:56 am 01:56 Clear 69 20.6 67 19.4 93 93 SE 7 11 29.98 1015 7 11 0.00 0.00
2:56 am 02:56 Clear 69 20.6 67 19.4 93 93 ESE 7 11 29.99 1016 9 14 0.00 0.00
3:40 am 03:40 Mostly Cloudy 70 21 66 19 88 88 N 18 30 29.99 1016 8 13 0.00 0.00
3:45 am 03:45 Mostly Cloudy 70 21 66 19 88 88 NNW 20 31 29.99 1016 9 14 0.00 0.00
3:56 am 03:56 Mostly Cloudy 70 21.1 67 19.4 90 90 NW 8 13 30.03 1017 10 16 0.00 0.00
4:14 am 04:14 Cloudy with Nearby Thunderstorms 70 21 63 17 78 78 N 18 30 30.01 1016 10 16 0.00 0.00
4:48 am 04:48 Cloudy with Nearby Thunderstorms 66 19 63 17 88 88 N 18 30 30.03 1017 7 11 0.04 1.02
4:56 am 04:56 Cloudy with Thunderstorms 65 18.3 64 17.8 97 97 N 13 20 30.06 1018 9 14 0.06 1.52
5:31 am 05:31 Cloudy with Nearby Thunderstorms 64 18 64 18 100 100 ESE 6 9 30.04 1017 6 10 0.05 1.27
5:52 am 05:52 Cloudy with Mist and Fog 64 18 64 18 100 100 SSE 22 35 29.97 1015 4 6 0.12 3.05
5:56 am 05:56 Cloudy with Mist and Fog 65 18.3 64 17.8 97 97 SSE 26 43 29.96 1015 4 6 0.13 3.30
6:56 am 06:56 Sunny 65 18.3 63 17.2 93 93 E 7 11 29.94 1014 10 16 0.02 0.51
7:56 am 07:56 Mostly Sunny 67 19.4 64 17.8 91 91 NW 5 7 29.96 1015 10 16 0.00 0.00
8:56 am 08:56 Sunny 70 21.1 66 18.9 87 87 N 7 11 30.02 1017 10 16 0.00 0.00
9:56 am 09:56 Sunny 72 22.2 66 18.9 82 82 ENE 6 9 30.04 1017 10 16 0.00 0.00
10:56 am 10:56 Sunny 75 23.9 66 18.9 74 74 Calm 30.05 1018 10 16 0.00 0.00
11:56 am 11:56 Sunny 78 25.6 67 19.4 69 69 Calm 30.06 1018 10 16 0.00 0.00
12:56 pm 12:56 Sunny 80 26.7 67 19.4 64 64 Calm 30.06 1018 10 16 0.00 0.00
1:56 pm 13:56 Sunny 82 27.8 67 19.4 60 60 SSW 6 9 30.06 1018 10 16 0.00 0.00
2:56 pm 14:56 Sunny 83 28.3 69 20.6 63 63 E 6 9 30.06 1018 10 16 0.00 0.00
3:56 pm 15:56 Sunny 84 28.9 69 20.6 61 61 VRB 6 9 30.04 1017 8 13 0.00 0.00
4:56 pm 16:56 Mostly Cloudy 84 28.9 70 21.1 63 63 SE 8 13 30.04 1017 8 13 0.00 0.00
5:56 pm 17:56 Mostly Cloudy 82 27.8 72 22.2 72 72 ESE 12 19 30.04 1017 10 16 0.00 0.00
6:56 pm 18:56 Mostly Sunny 81 27.2 71 21.7 72 72 ESE 10 17 30.04 1017 10 16 0.00 0.00
7:56 pm 19:56 Sunny 79 26.1 71 21.7 77 77 ESE 10 17 30.05 1018 10 16 0.00 0.00
8:56 pm 20:56 Sunny 75 23.9 71 21.7 88 88 ESE 6 9 30.06 1018 10 16 0.00 0.00
9:56 pm 21:56 Clear 73 22.8 70 21.1 90 90 ESE 8 13 30.08 1019 10 16 0.00 0.00
10:56 pm 22:56 Clear 72 22.2 70 21.1 94 94 ESE 6 9 30.12 1020 10 16 0.00 0.00
11:56 pm 23:56 Partly Cloudy 71 21.7 69 20.6 94 94 ESE 6 9 30.13 1020 10 16 0.00 0.00

Powered by AerisWeather